Volver al catálogo

CENTAURI-6

ActivoComunicacionesVLEO
NORAD 59451·PAYLOAD·🇦🇺 Australia

Lanzado Apr 7, 2024 desde Cape Canaveral Space Force Station

Loading…

Próximos Pases (próximas 24 horas)

TLE

ActualizadoSource: Space-Track

Época: Sep 14, 2026, 09:51 UTC

1 59451U 24066K   26257.41053361  .00003493  00000-0  24924-3 0  9990
2 59451  45.6054 148.2528 0001447 219.0263 141.0517 15.06496972133576

Sigue CENTAURI-6 en tiempo real con AllMySat

Download on the App Store